KI4HRG Weather Reports


time (UTC)temp
F
wind
direction
speed
knots
gust
knots
rain 1hr
in
rain 24hr
in
rain mn
in
humidity
%
barometer
mb
20260510214514 79 62 0.0 0.0 0.00 0.00 0.00 69 1016.1
20260510214010 80 104 0.0 0.9 0.00 0.00 0.00 67 1016.3
20260510213508 79 195 0.0 0.9 0.00 0.00 0.00 68 1016.1
20260510213004 80 165 0.0 1.7 0.00 0.00 0.00 68 1016.1
20260510212500 81 192 0.0 0.9 0.00 0.00 0.00 66 1016.2
20260510211957 81 333 0.0 0.9 0.00 0.00 0.00 65 1016.1
20260510211455 80 36 0.0 0.9 0.00 0.00 0.00 65 1016.1
20260510210954 82 334 0.0 0.9 0.00 0.00 0.00 64 1016.2
20260510210450 82 334 0.0 0.9 0.00 0.00 0.00 64 1016.2
20260510205950 80 342 0.0 0.0 0.00 0.00 0.00 66 1016.2
20260510205445 80 336 0.0 0.9 0.00 0.00 0.00 65 1016.3
20260510204941 80 338 0.0 0.0 0.00 0.00 0.00 66 1016.1
20260510204438 78 341 0.0 0.9 0.00 0.00 0.00 68 1016.2
20260510203933 79 351 0.0 0.9 0.00 0.00 0.00 70 1016.1
20260510203432 80 354 0.9 0.9 0.00 0.00 0.00 68 1016.5
20260510202926 79 89 0.0 0.9 0.00 0.00 0.00 68 1016.3
20260510202422 78 108 0.9 1.7 0.00 0.00 0.00 69 1016.4
20260510201919 78 75 0.9 2.6 0.00 0.00 0.00 70 1016.5
20260510201416 79 110 0.0 0.9 0.00 0.00 0.00 69 1016.5
20260510200913 79 323 0.9 2.6 0.00 0.00 0.00 68 1016.3
20260510200412 79 340 0.0 0.9 0.00 0.00 0.00 67 1016.5
20260510195906 79 315 0.0 0.9 0.00 0.00 0.00 67 1016.6
20260510195404 78 288 0.9 0.9 0.00 0.00 0.00 68 1016.5
20260510194858 78 191 0.0 1.7 0.00 0.00 0.00 70 1016.4
20260510194355 76 323 2.6 4.3 0.00 0.00 0.00 72 1016.6
20260510193851 76 205 0.0 1.7 0.00 0.00 0.00 72 1016.6
20260510193346 76 10 0.0 1.7 0.00 0.00 0.00 72 1016.6
20260510192841 77 275 0.0 2.6 0.00 0.00 0.00 72 1016.5
20260510192337 77 37 0.0 1.7 0.00 0.00 0.00 71 1016.7
20260510191833 76 4 0.9 1.7 0.00 0.00 0.00 73 1016.7
20260510191329 76 10 0.9 1.7 0.00 0.00 0.00 72 1016.8
20260510190827 78 24 0.0 1.7 0.00 0.00 0.00 71 1016.8
20260510190325 78 13 0.9 1.7 0.00 0.00 0.00 72 1016.8
20260510185820 76 271 0.9 0.9 0.00 0.00 0.00 73 1016.8
20260510185319 74 358 0.0 0.9 0.00 0.00 0.00 77 1017.0
20260510184816 73 105 3.5 4.3 0.00 0.00 0.00 79 1016.9
20260510184312 74 105 2.6 2.6 0.00 0.00 0.00 77 1017.1
20260510183807 75 118 4.3 5.2 0.00 0.00 0.00 77 1017.3
20260510183302 73 35 0.0 1.7 0.00 0.00 0.00 80 1017.4
20260510182758 73 104 0.9 5.2 0.00 0.00 0.00 81 1017.3
20260510182255 75 169 0.9 4.3 0.00 0.00 0.00 78 1017.1
20260510181751 74 103 0.0 2.6 0.00 0.00 0.00 78 1017.2
20260510181248 73 210 1.7 2.6 0.00 0.00 0.00 81 1017.3
20260510180745 73 96 1.7 1.7 0.00 0.00 0.00 81 1017.3
20260510180242 73 97 0.9 5.2 0.00 0.00 0.00 82 1017.5
20260510175739 74 45 0.0 2.6 0.00 0.00 0.00 78 1017.3
20260510175234 73 255 0.9 2.6 0.00 0.00 0.00 80 1017.4
20260510174731 72 138 2.6 4.3 0.00 0.00 0.00 82 1017.5
20260510174229 73 173 0.9 2.6 0.00 0.00 0.00 82 1017.7
20260510173725 72 146 1.7 4.3 0.00 0.00 0.00 84 1017.6
20260510173220 73 173 0.9 4.3 0.00 0.00 0.00 83 1017.7
20260510172716 72 186 0.9 0.9 0.00 0.00 0.00 85 1017.9
20260510172212 70 176 0.0 0.9 0.00 0.00 0.00 88 1017.9
20260510171709 69 150 0.0 2.6 0.00 0.00 0.00 89 1018.0
20260510171207 69 104 0.9 1.7 0.00 0.00 0.00 89 1018.0
20260510170703 69 162 0.0 1.7 0.00 0.00 0.00 89 1018.1
20260510170159 69 123 0.0 1.7 0.00 0.00 0.00 89 1018.1
20260510165656 70 147 0.9 1.7 0.00 0.00 0.00 88 1018.1
20260510165152 70 119 0.0 1.7 0.00 0.00 0.00 87 1018.2
20260510164649 70 109 0.9 0.9 0.00 0.00 0.00 87 1018.1
20260510164147 71 59 0.0 0.0 0.00 0.00 0.00 87 1018.2
20260510163641 71 307 0.0 0.0 0.00 0.00 0.00 85 1018.3
20260510163137 71 300 0.9 1.7 0.00 0.00 0.00 84 1018.0
20260510162631 71 323 0.0 0.0 0.00 0.00 0.00 85 1017.8
20260510162129 71 285 0.9 0.9 0.00 0.00 0.00 85 1018.0
20260510161624 70 333 0.9 1.7 0.00 0.00 0.00 87 1018.0
20260510161121 70 214 0.0 1.7 0.00 0.00 0.00 87 1017.9
20260510160619 71 156 0.9 0.9 0.00 0.00 0.00 85 1017.7
20260510160118 70 165 0.0 0.9 0.00 0.00 0.00 88 1018.0
20260510155615 70 194 1.7 1.7 0.00 0.00 0.00 88 1017.8
20260510155111 70 206 0.0 1.7 0.00 0.00 0.00 88 1018.0
20260510154607 71 204 0.9 1.7 0.00 0.00 0.00 86 1017.9
20260510154102 71 4 0.0 0.9 0.00 0.00 0.00 87 1018.1
20260510153557 70 67 0.9 1.7 0.00 0.00 0.00 88 1018.0
20260510153054 69 266 0.0 0.9 0.00 0.00 0.00 90 1018.2
20260510152551 69 191 0.9 1.7 0.00 0.00 0.00 92 1017.9
20260510152048 68 28 0.0 0.0 0.00 0.00 0.00 95 1017.9
20260510151544 67 197 0.0 0.9 0.00 0.00 0.00 97 1018.2
20260510151042 66 82 0.9 1.7 0.00 0.00 0.00 98 1018.0
20260510150536 66 331 0.0 0.0 0.00 0.00 0.00 99 1018.1
20260510150033 66 81 0.0 0.0 0.00 0.00 0.00 99 1018.1
20260510145530 65 66 0.0 0.0 0.00 0.00 0.00 99 1018.0
20260510145026 65 64 0.0 0.0 0.00 0.00 0.00 99 1018.0
20260510144523 65 26 0.0 0.9 0.00 0.00 0.00 99 1018.0
20260510144019 64 51 0.0 0.0 0.00 0.00 0.00 99 1017.8
20260510143514 64 45 0.0 0.9 0.00 0.00 0.00 99 1017.9
20260510143011 64 44 0.0 0.0 0.00 0.00 0.00 99 1017.8
20260510142508 64 36 0.0 0.0 0.00 0.00 0.00 99 1017.9
20260510142004 64 21 0.0 0.0 0.00 0.00 0.00 99 1017.9
20260510141501 64 28 0.0 0.9 0.00 0.00 0.00 99 1018.1
20260510140959 64 28 0.0 0.0 0.00 0.00 0.00 99 1018.1
20260510140454 64 28 0.0 0.9 0.00 0.00 0.00 99 1018.1
20260510135954 64 77 0.9 0.9 0.00 0.00 0.00 99 1017.9
20260510135449 64 88 0.0 0.0 0.00 0.00 0.00 99 1017.9
20260510134947 64 64 0.0 0.0 0.00 0.00 0.00 99 1017.9
20260510134444 64 66 0.0 0.9 0.00 0.00 0.00 99 1017.8
20260510133941 64 68 0.0 0.0 0.00 0.00 0.00 99 1017.8
20260510133436 64 345 0.0 0.0 0.00 0.00 0.00 99 1017.8
20260510132932 64 349 0.0 0.0 0.00 0.00 0.00 99 1017.9
20260510132430 64 350 0.0 0.9 0.00 0.00 0.00 99 1017.8
20260510131926 64 33 0.0 0.0 0.00 0.00 0.00 99 1017.6
20260510131424 63 46 0.0 0.0 0.00 0.00 0.00 99 1017.8
20260510130920 64 43 0.0 0.0 0.00 0.00 0.00 99 1017.6
20260510130418 64 54 0.0 0.0 0.00 0.00 0.00 99 1017.6
20260510125915 64 15 0.0 0.0 0.00 0.00 0.00 99 1017.4
20260510125410 63 25 0.0 0.0 0.00 0.00 0.00 99 1017.5
20260510124908 63 37 0.0 0.9 0.00 0.00 0.00 99 1017.6
20260510124404 63 42 0.0 0.0 0.00 0.00 0.00 99 1017.5
20260510123900 63 38 0.9 0.9 0.00 0.00 0.00 99 1017.2
20260510123356 63 47 0.0 0.0 0.00 0.00 0.00 99 1017.2
20260510122853 63 46 0.0 0.0 0.00 0.00 0.00 99 1017.3
20260510122348 63 67 0.0 1.7 0.00 0.00 0.00 99 1017.3
20260510121844 63 50 0.0 0.0 0.00 0.00 0.00 99 1017.0
20260510121342 63 76 0.0 0.9 0.00 0.00 0.00 99 1017.0
20260510120839 63 33 0.0 0.0 0.00 0.00 0.00 99 1017.0
20260510120337 63 38 0.0 0.0 0.00 0.00 0.00 99 1016.9
20260510115832 63 22 0.0 0.0 0.00 0.00 0.00 99 1016.6
20260510115329 63 20 0.0 0.0 0.00 0.00 0.00 99 1016.6
20260510114825 63 20 0.0 0.0 0.00 0.00 0.00 99 1016.6
20260510114323 63 24 0.0 0.0 0.00 0.00 0.00 99 1016.4
20260510113817 63 32 0.0 0.0 0.00 0.00 0.00 99 1016.3
20260510113314 63 37 0.0 0.0 0.00 0.00 0.00 99 1016.3
20260510112811 63 41 0.0 0.0 0.00 0.00 0.00 99 1016.1
20260510112308 63 45 0.0 0.0 0.00 0.00 0.00 99 1015.8
20260510111803 63 339 0.0 0.0 0.00 0.00 0.00 99 1015.7
20260510111301 63 351 0.0 0.0 0.00 0.00 0.00 99 1015.7
20260510110800 63 325 0.0 0.0 0.00 0.00 0.00 99 1015.8
20260510110258 63 338 0.0 0.0 0.00 0.00 0.00 99 1015.8
20260510105758 63 337 0.0 0.0 0.00 0.00 0.00 99 1015.3
20260510105253 63 334 0.0 0.0 0.00 0.00 0.00 99 1015.2
20260510104750 62 331 0.0 0.0 0.00 0.00 0.00 99 1015.4
20260510104248 62 322 0.0 0.0 0.00 0.00 0.00 99 1015.3
20260510103743 62 322 0.0 0.0 0.00 0.00 0.00 99 1015.3
20260510103241 62 322 0.0 0.0 0.00 0.00 0.00 99 1015.3
20260510102740 62 322 0.0 0.0 0.00 0.00 0.00 99 1015.1
20260510102236 62 322 0.0 0.0 0.00 0.00 0.00 99 1015.1
20260510101734 62 322 0.0 0.0 0.00 0.00 0.00 99 1015.0
20260510101232 62 322 0.0 0.0 0.00 0.00 0.00 99 1014.9
20260510100728 62 322 0.0 0.0 0.00 0.00 0.00 99 1014.8
20260510100226 62 322 0.0 0.0 0.00 0.00 0.00 99 1015.1
20260510095721 62 322 0.0 0.0 0.00 0.00 0.00 99 1014.7
20260510095217 62 323 0.0 0.0 0.00 0.00 0.00 99 1014.6
20260510094715 62 322 0.0 0.0 0.00 0.00 0.00 99 1014.8
20260510094211 62 325 0.0 0.0 0.00 0.00 0.00 99 1014.3
20260510093707 62 356 0.0 0.0 0.00 0.00 0.00 99 1014.4
20260510093205 62 358 0.0 0.0 0.00 0.00 0.00 99 1014.3
20260510092701 62 357 0.0 0.0 0.00 0.00 0.00 99 1014.3
20260510092156 62 358 0.0 0.0 0.00 0.00 0.00 99 1014.4
20260510091652 62 356 0.0 0.0 0.00 0.00 0.00 99 1014.2
20260510091149 62 11 0.0 0.0 0.00 0.00 0.00 99 1014.1
20260510090646 62 14 0.0 0.0 0.00 0.00 0.00 99 1014.0
20260510090142 62 14 0.0 0.0 0.00 0.00 0.00 99 1013.9
20260510085638 62 14 0.0 0.0 0.00 0.00 0.00 99 1014.0
20260510085132 62 13 0.0 0.0 0.00 0.00 0.00 99 1013.9
20260510084630 62 21 0.0 0.0 0.00 0.00 0.00 99 1013.7
20260510084126 62 33 0.0 0.0 0.00 0.00 0.00 99 1013.9
20260510083623 62 32 0.0 0.0 0.00 0.00 0.00 99 1013.7
20260510083119 62 33 0.0 0.0 0.00 0.00 0.00 99 1013.6
20260510082610 62 33 0.0 0.0 0.00 0.00 0.00 99 1013.6
20260510082106 63 40 0.0 0.0 0.00 0.00 0.00 99 1013.7
20260510081601 63 47 0.0 0.0 0.00 0.00 0.00 99 1013.6
20260510081056 63 21 0.0 0.0 0.00 0.00 0.00 99 1013.6
20260510080556 63 8 0.0 0.0 0.00 0.00 0.00 99 1013.7
20260510080053 63 344 0.0 0.0 0.00 0.00 0.00 99 1013.5
20260510075550 63 344 0.0 0.0 0.00 0.00 0.00 99 1013.5
20260510075047 63 343 0.0 0.0 0.00 0.00 0.00 99 1013.4
20260510074545 63 342 0.0 0.0 0.00 0.00 0.00 99 1013.7
20260510074040 63 342 0.0 0.0 0.00 0.00 0.00 99 1013.5
20260510073536 63 341 0.0 0.0 0.00 0.00 0.00 99 1013.6
20260510073034 63 341 0.0 0.0 0.00 0.00 0.00 99 1013.6
20260510072530 63 341 0.0 0.0 0.00 0.00 0.00 99 1013.6
20260510072025 63 341 0.0 0.0 0.00 0.00 0.00 99 1013.6
20260510071521 63 338 0.0 0.0 0.00 0.00 0.00 99 1013.8
20260510071020 63 333 0.0 0.0 0.00 0.00 0.00 99 1013.8
20260510070517 62 333 0.0 0.0 0.00 0.00 0.00 99 1013.7
20260510070014 62 334 0.0 0.0 0.00 0.00 0.00 99 1013.6
20260510065510 62 333 0.0 0.0 0.00 0.00 0.00 99 1013.8
20260510065006 62 333 0.0 0.0 0.00 0.00 0.00 99 1013.8
20260510064503 62 333 0.0 0.0 0.00 0.00 0.00 99 1013.9
20260510064000 62 333 0.0 0.0 0.00 0.00 0.00 99 1014.0
20260510063456 62 333 0.0 0.0 0.00 0.00 0.00 99 1014.0
20260510062954 62 333 0.0 0.0 0.00 0.00 0.00 99 1014.1
20260510062449 62 332 0.0 0.0 0.00 0.00 0.00 99 1014.1
20260510061944 62 332 0.0 0.0 0.00 0.00 0.00 99 1014.3
20260510061441 62 333 0.0 0.0 0.00 0.00 0.00 99 1014.1
20260510060937 62 327 0.0 0.0 0.00 0.00 0.00 99 1014.1
20260510060434 62 327 0.0 0.0 0.00 0.00 0.00 99 1014.2
20260510055931 62 327 0.0 0.0 0.00 0.00 0.00 99 1014.3
20260510055426 62 328 0.0 0.0 0.00 0.00 0.00 99 1014.1
20260510054919 62 328 0.0 0.0 0.00 0.00 0.00 99 1014.1
20260510054414 62 322 0.0 0.0 0.00 0.00 0.00 99 1014.0
20260510053909 62 325 0.0 0.0 0.00 0.00 0.00 99 1014.0
20260510053405 62 325 0.0 0.0 0.00 0.00 0.00 99 1014.0
20260510052902 62 325 0.0 0.0 0.00 0.00 0.00 99 1014.2
20260510052357 62 325 0.0 0.0 0.00 0.00 0.00 99 1014.1
20260510051854 62 325 0.0 0.0 0.00 0.00 0.00 99 1014.3
20260510051350 62 325 0.0 0.0 0.00 0.00 0.00 99 1014.3
20260510050847 62 324 0.0 0.0 0.00 0.00 0.00 99 1014.4
20260510050344 62 322 0.0 0.0 0.00 0.00 0.00 99 1014.6
20260510045841 62 322 0.0 0.0 0.00 0.03 0.03 99 1014.3
20260510045338 62 322 0.0 0.0 0.00 0.03 0.03 99 1014.3
20260510044835 62 322 0.0 0.0 0.00 0.03 0.03 99 1014.1
20260510044332 63 322 0.0 0.0 0.00 0.03 0.03 99 1014.2
20260510043828 63 322 0.0 0.0 0.00 0.03 0.03 99 1014.1
20260510043324 62 322 0.0 0.0 0.00 0.03 0.03 99 1014.3
20260510042822 63 322 0.0 0.0 0.00 0.03 0.03 99 1014.1
20260510042318 63 322 0.0 0.0 0.00 0.03 0.03 99 1014.2
20260510041814 63 322 0.0 0.0 0.00 0.03 0.03 99 1014.6
20260510041312 63 322 0.0 0.0 0.00 0.03 0.03 99 1014.4
20260510040809 63 322 0.0 0.0 0.00 0.03 0.03 99 1014.4
20260510040305 64 322 0.0 0.0 0.00 0.03 0.03 99 1014.4
20260510035801 64 322 0.0 0.0 0.00 0.03 0.03 99 1014.6
20260510035257 64 322 0.0 0.0 0.00 0.03 0.03 99 1014.3
20260510034753 64 322 0.0 0.0 0.00 0.03 0.03 99 1014.2
20260510034250 64 322 0.0 0.0 0.00 0.03 0.03 99 1014.4
20260510033746 64 322 0.0 0.0 0.00 0.03 0.03 99 1014.3
20260510033239 64 322 0.0 0.0 0.00 0.03 0.03 99 1014.3
20260510032734 64 322 0.0 0.0 0.00 0.03 0.03 99 1014.6
20260510032231 64 322 0.0 0.0 0.00 0.03 0.03 99 1014.7
20260510031726 64 322 0.0 0.0 0.00 0.03 0.03 99 1014.7
20260510031222 64 322 0.0 0.0 0.00 0.03 0.03 99 1014.6
20260510030722 65 322 0.0 0.0 0.00 0.03 0.03 99 1014.7
20260510030219 65 322 0.0 0.0 0.00 0.03 0.03 99 1014.3
20260510025717 65 322 0.0 0.0 0.00 0.03 0.03 99 1014.3
20260510025214 65 322 0.0 0.0 0.00 0.03 0.03 99 1014.4
20260510024711 65 322 0.0 0.0 0.00 0.03 0.03 99 1014.4
20260510024207 65 322 0.0 0.0 0.00 0.03 0.03 99 1014.6
20260510023703 65 322 0.0 0.0 0.00 0.03 0.03 99 1014.2
20260510023200 66 322 0.0 0.0 0.00 0.03 0.03 99 1014.3
20260510022656 66 322 0.0 0.0 0.00 0.03 0.03 99 1014.2
20260510022150 66 322 0.0 0.0 0.00 0.03 0.03 99 1014.0
20260510021646 66 321 0.0 0.0 0.00 0.03 0.03 99 1014.1
20260510021143 66 321 0.0 0.0 0.00 0.03 0.03 99 1013.9
20260510020638 66 322 0.0 0.0 0.00 0.03 0.03 99 1013.7
20260510020134 66 322 0.0 0.0 0.00 0.03 0.03 99 1013.7
20260510015630 66 322 0.0 0.0 0.00 0.03 0.03 99 1013.7
20260510015127 66 322 0.0 0.0 0.00 0.03 0.03 98 1013.7
20260510014622 66 322 0.0 0.0 0.00 0.03 0.03 98 1013.6
20260510014120 66 322 0.0 0.0 0.00 0.03 0.03 98 1013.5
20260510013620 66 322 0.0 0.0 0.00 0.03 0.03 98 1013.5
20260510013115 66 322 0.0 0.0 0.00 0.03 0.03 97 1013.1
20260510012615 67 322 0.0 0.0 0.00 0.03 0.03 97 1013.1
20260510012112 67 322 0.0 0.0 0.00 0.03 0.03 96 1013.1
20260510011611 67 322 0.0 0.0 0.00 0.03 0.03 96 1012.9
20260510011107 67 322 0.0 0.0 0.00 0.03 0.03 96 1012.7
20260510010604 67 322 0.0 0.0 0.00 0.03 0.03 95 1012.8
20260510010101 67 322 0.0 0.0 0.00 0.03 0.03 95 1012.8
20260510005556 68 322 0.0 0.0 0.00 0.03 0.03 94 1012.8
20260510005054 68 322 0.0 0.0 0.00 0.03 0.03 94 1012.5
20260510004552 68 316 0.0 0.0 0.00 0.03 0.03 94 1012.5
20260510004050 68 318 0.0 0.0 0.00 0.03 0.03 93 1012.6
20260510003546 68 315 0.0 0.0 0.00 0.03 0.03 93 1012.7
20260510003041 68 313 0.0 0.0 0.00 0.03 0.03 93 1012.5
20260510002537 68 310 0.0 0.0 0.00 0.03 0.03 93 1012.7
20260510002034 69 306 0.0 0.0 0.00 0.03 0.03 92 1012.5
20260510001531 69 323 0.0 0.0 0.00 0.03 0.03 92 1012.5
20260510001030 69 14 0.0 0.0 0.00 0.03 0.03 92 1012.5
20260510000524 69 14 0.0 0.0 0.00 0.03 0.03 92 1012.6
20260510000022 69 13 0.0 0.0 0.00 0.03 0.03 92 1012.4
20260509235518 69 14 0.0 0.0 0.00 0.03 0.03 91 1012.2
20260509235015 69 14 0.0 0.0 0.00 0.03 0.03 91 1011.9
20260509234511 69 15 0.0 0.0 0.00 0.03 0.03 90 1011.9
20260509234010 70 16 0.0 0.0 0.00 0.03 0.03 90 1012.0
20260509233507 70 15 0.0 0.0 0.00 0.03 0.03 89 1012.1
20260509233004 70 25 0.0 0.0 0.00 0.03 0.03 89 1011.8
20260509232501 70 25 0.0 0.0 0.00 0.03 0.03 88 1011.8
20260509231957 71 26 0.0 0.0 0.00 0.03 0.03 87 1011.7
20260509231454 70 25 0.0 0.0 0.00 0.03 0.03 87 1011.8
20260509230951 71 24 0.0 0.0 0.00 0.03 0.03 87 1011.8
20260509230448 71 25 0.0 0.0 0.00 0.03 0.03 86 1011.9
20260509225944 71 25 0.0 0.0 0.00 0.03 0.03 85 1011.6
20260509225441 71 26 0.0 0.0 0.00 0.03 0.03 84 1011.7
20260509224936 72 27 0.0 0.0 0.00 0.03 0.03 83 1011.4
20260509224432 72 46 0.0 0.0 0.00 0.03 0.03 81 1011.6
20260509223929 72 30 0.0 0.0 0.00 0.03 0.03 83 1011.5
20260509223426 73 62 0.0 0.0 0.00 0.03 0.03 82 1011.4
20260509222923 73 194 0.0 0.9 0.00 0.03 0.03 80 1011.5
20260509222418 73 160 0.0 0.0 0.00 0.03 0.03 80 1011.4
20260509221913 73 185 0.9 1.7 0.00 0.03 0.03 79 1011.3
20260509221410 73 58 0.0 0.0 0.00 0.03 0.03 79 1011.2
20260509220907 73 69 0.0 0.9 0.00 0.03 0.03 80 1011.2
20260509220402 74 98 0.0 0.9 0.00 0.03 0.03 79 1011.4
20260509215858 74 60 0.0 0.0 0.00 0.03 0.03 78 1011.6
20260509215354 73 112 0.0 0.9 0.00 0.03 0.03 80 1011.2
20260509214852 74 70 0.0 0.9 0.00 0.03 0.03 78 1011.2